FORESAIL-1 PRIME

Last updated on Fri Sep 11 2026 00:03:43 GMT+0000 (Coordinated Universal Time)

1 66778U 25276DS 26252.71017999 .00003236 00000+0 15648-3 0 9996 2 66778 97.4138 324.4374 0003013 140.9508 219.1945 15.19306255 43239
UTC large
Height (km)
Speed (km/s)
/
Latitude / Longitude
Inclination (degrees)
Orbital Period (minutes)
Azimuth
Elevation
Range (km)
Doppler Factor

Next 0 passes for location: London (51.5072 / 0.1276)

No passes found over London.
FORESAIL-1 PRIME